This demonstration page uses our WeatherBlox Daily Observations layout. Learn more.

Left ArrowRight Arrow

Hourly Observations for March 12, 2016

Temp ( °F °C ) Dew Point ( °F °C ) Humidity (%) Winds ( mph kmh ) Pressure ( in mb ) Visibility ( mi km ) Precip ( " mm )
12:53 am 00:53 Clear 47 8.3 43 6.1 86 86 VRB 3 6 30.27 1025 10 16 N/A
1:53 am 01:53 Clear 47 8.3 42 5.6 83 83 N N/A 30.27 1025 10 16 N/A
2:53 am 02:53 Clear 47 8.3 42 5.6 83 83 N N/A 30.24 1024 10 16 N/A
3:53 am 03:53 Clear 47 8.3 42 5.6 83 83 NE 3 6 30.22 1024 9 14 N/A
4:53 am 04:53 Clear 47 8.3 42 5.6 83 83 NNE 3 6 30.19 1022 9 14 N/A
5:53 am 05:53 Clear 46 7.8 42 5.6 86 86 NE 3 6 30.18 1022 8 13 N/A
6:53 am 06:53 Sunny 45 7.2 43 6.1 93 93 WNW 5 7 30.19 1022 8 13 N/A
7:53 am 07:53 Sunny 48 8.9 43 6.1 83 83 N N/A 30.19 1022 7 11 N/A
8:53 am 08:53 Sunny 50 10 43 6.1 77 77 N N/A 30.20 1023 10 16 N/A
9:53 am 09:53 Sunny 54 12.2 44 6.7 69 69 SE 6 9 30.17 1022 10 16 N/A
10:53 am 10:53 Sunny 57 13.9 45 7.2 64 64 N N/A 30.17 1022 10 16 N/A
11:53 am 11:53 Partly Cloudy 59 15 46 7.8 62 62 N N/A 30.15 1021 10 16 N/A
12:31 pm 12:31 Cloudy 61 16.1 47 8.3 60 60 N N/A 30.12 1020 10 16 N/A
12:53 pm 12:53 Cloudy 61 16.1 47 8.3 60 60 N N/A 30.13 1020 10 16 N/A
1:00 pm 13:00 Cloudy 62 16.7 48 8.9 60 60 N N/A 30.09 1019 10 16 N/A
1:16 pm 13:16 Cloudy 64 17.8 50 10 60 60 NNE 7 11 30.06 1018 10 16 N/A
1:53 pm 13:53 Cloudy 63 17.2 50 10 63 63 NNE 3 6 30.09 1019 10 16 N/A
2:53 pm 14:53 Cloudy 64 17.8 51 10.6 63 63 NE 7 11 30.06 1018 10 16 N/A
3:53 pm 15:53 Cloudy 64 17.8 52 11.1 65 65 E 6 9 30.05 1018 10 16 N/A
4:53 pm 16:53 Cloudy 65 18.3 52 11.1 63 63 E 5 7 30.05 1018 10 16 N/A
5:48 pm 17:48 Cloudy 64 18 52 11 64 64 ENE 5 7 30.06 1018 10 16 N/A
5:53 pm 17:53 Cloudy 64 17.8 52 11.1 65 65 ENE 5 7 30.05 1018 10 16 N/A
6:53 pm 18:53 Mostly Cloudy 62 16.7 52 11.1 70 70 E 6 9 30.03 1017 10 16 N/A
7:53 pm 19:53 Partly Cloudy 60 15.6 52 11.1 75 75 E 5 7 30.01 1016 10 16 N/A
8:53 pm 20:53 Cloudy 59 15 53 11.7 81 81 N N/A 30.01 1016 10 16 N/A
9:53 pm 21:53 Cloudy with Light Rain 59 15 53 11.7 81 81 NNE 5 7 30.00 1016 10 16 N/A
10:53 pm 22:53 Cloudy with Light Rain 59 15 54 12.2 83 83 ENE 5 7 30.00 1016 10 16 N/A
11:53 pm 23:53 Cloudy with Light Rain 57 13.9 54 12.2 90 90 NE 7 11 29.98 1015 7 11 0.05 1.27

Powered by AerisWeather